Location: Sobotiste
(48.7170°N, 17.4000°E)
Time: 14:02:07
(UTC+02:00)

METEOR M2 - Pass Details

Date: 22 March 2026
Orbit: 817 x 824 km, 98.5° (Epoch: 14 April)

Event Time Altitude Azimuth Distance (km) Brightness Sun altitude
Rises 03:14:10 0° 24° (NNE) 3,372 ? -25.1°
Reaches altitude 10° 03:16:56 10° 37° (NE) 2,434 ? -24.7°
Maximum altitude 03:21:23 26° 92° (E) 1,581 ? -24.0°
Drops below altitude 10° 03:25:48 10° 148° (SSE) 2,417 ? -23.4°
Sets 03:28:32 0° 161° (SSE) 3,344 ? -23.0°
